<?xml version='1.0' encoding='UTF-8'?>
<gpx xmlns="http://www.topografix.com/GPX/1/1" creator="www.balnam.be" version="1.1" xmlns:xsi="http://www.w3.org/2001/XMLSchema-instance" xsi:schemaLocation="http://www.topografix.com/GPX/1/1 http://www.topografix.com/GPX/1/1/gpx.xsd">
<trk>
<name>lsnmt10</name>
<cmt>v</cmt>
<desc>Montegnée Chemin n°10 Rue des Rhieux</desc>
<link href="https://chemins.be/montegnee/chemin/10"/><trkseg>
<trkpt lat="50.638143" lon="5.519565"><time>2026-05-02T18:28:41Z</time></trkpt>
<trkpt lat="50.638744" lon="5.519122"><time>2026-05-02T18:38:41Z</time></trkpt>
<trkpt lat="50.638777" lon="5.519024"><time>2026-05-02T18:48:41Z</time></trkpt>
</trkseg></trk>
<trk>
<name>lsnmt10</name>
<cmt>d</cmt>
<desc>Montegnée Chemin n°10 Rue des Rhieux</desc>
<link href="https://chemins.be/montegnee/chemin/10"/><trkseg>
<trkpt lat="50.638777" lon="5.519024"><time>2026-05-02T18:48:41Z</time></trkpt>
<trkpt lat="50.638792" lon="5.518918"><time>2026-05-02T18:58:41Z</time></trkpt>
<trkpt lat="50.638925" lon="5.518772"><time>2026-05-02T19:08:41Z</time></trkpt>
</trkseg></trk>
<trk>
<name>lsnmt10</name>
<cmt>b</cmt>
<desc>Montegnée Chemin n°10 Rue des Rhieux</desc>
<link href="https://chemins.be/montegnee/chemin/10"/><trkseg>
<trkpt lat="50.638925" lon="5.518772"><time>2026-05-02T19:08:41Z</time></trkpt>
<trkpt lat="50.639106" lon="5.518559"><time>2026-05-02T19:18:41Z</time></trkpt>
<trkpt lat="50.639176" lon="5.518392"><time>2026-05-02T19:28:41Z</time></trkpt>
</trkseg></trk>
<trk>
<name>lsnmt10</name>
<cmt>q</cmt>
<desc>Montegnée Chemin n°10 Rue des Rhieux</desc>
<link href="https://chemins.be/montegnee/chemin/10"/><trkseg>
<trkpt lat="50.639176" lon="5.518392"><time>2026-05-02T19:28:41Z</time></trkpt>
<trkpt lat="50.639355" lon="5.517668"><time>2026-05-02T19:38:41Z</time></trkpt>
<trkpt lat="50.639807" lon="5.517395"><time>2026-05-02T19:48:41Z</time></trkpt>
<trkpt lat="50.639827" lon="5.517260"><time>2026-05-02T19:58:41Z</time></trkpt>
</trkseg></trk>
<trk>
<name>lsnmt10</name>
<cmt>v</cmt>
<desc>Montegnée Chemin n°10 Rue des Rhieux</desc>
<link href="https://chemins.be/montegnee/chemin/10"/><trkseg>
<trkpt lat="50.639827" lon="5.517260"><time>2026-05-02T19:58:41Z</time></trkpt>
<trkpt lat="50.640326" lon="5.517046"><time>2026-05-02T20:08:41Z</time></trkpt>
<trkpt lat="50.640666" lon="5.516788"><time>2026-05-02T20:18:41Z</time></trkpt>
</trkseg>
</trk>
<trk>
<name>lsnmt25</name>
<cmt>r</cmt>
<desc>Montegnée Chemin n°25 </desc>
<link href="https://chemins.be/montegnee/chemin/25"/><trkseg>
<trkpt lat="50.640891" lon="5.529190"><time>2026-05-02T18:28:41Z</time></trkpt>
<trkpt lat="50.641024" lon="5.528735"><time>2026-05-02T18:38:41Z</time></trkpt>
</trkseg></trk>
<trk>
<name>lsnmt25</name>
<cmt>v</cmt>
<desc>Montegnée Chemin n°25 </desc>
<link href="https://chemins.be/montegnee/chemin/25"/><trkseg>
<trkpt lat="50.641024" lon="5.528735"><time>2026-05-02T18:38:41Z</time></trkpt>
<trkpt lat="50.641150" lon="5.528210"><time>2026-05-02T18:48:41Z</time></trkpt>
</trkseg></trk>
<trk>
<name>lsnmt25</name>
<cmt>s</cmt>
<desc>Montegnée Chemin n°25 </desc>
<link href="https://chemins.be/montegnee/chemin/25"/><trkseg>
<trkpt lat="50.641150" lon="5.528210"><time>2026-05-02T18:48:41Z</time></trkpt>
<trkpt lat="50.641535" lon="5.525721"><time>2026-05-02T18:58:41Z</time></trkpt>
<trkpt lat="50.641381" lon="5.524357"><time>2026-05-02T19:08:41Z</time></trkpt>
</trkseg></trk>
<trk>
<name>lsnmt25</name>
<cmt>d</cmt>
<desc>Montegnée Chemin n°25 </desc>
<link href="https://chemins.be/montegnee/chemin/25"/><trkseg>
<trkpt lat="50.641381" lon="5.524357"><time>2026-05-02T19:08:41Z</time></trkpt>
<trkpt lat="50.641277" lon="5.523666"><time>2026-05-02T19:18:41Z</time></trkpt>
</trkseg></trk>
<trk>
<name>lsnmt25</name>
<cmt>s</cmt>
<desc>Montegnée Chemin n°25 </desc>
<link href="https://chemins.be/montegnee/chemin/25"/><trkseg>
<trkpt lat="50.641277" lon="5.523666"><time>2026-05-02T19:18:41Z</time></trkpt>
<trkpt lat="50.641286" lon="5.521236"><time>2026-05-02T19:28:41Z</time></trkpt>
</trkseg>
</trk>
<trk>
<name>lsnmt3</name>
<cmt>s</cmt>
<desc>Montegnée Chemin n°3 </desc>
<link href="https://chemins.be/montegnee/chemin/3"/><trkseg>
<trkpt lat="50.628021" lon="5.508147"><time>2026-05-02T18:28:41Z</time></trkpt>
<trkpt lat="50.627399" lon="5.508504"><time>2026-05-02T18:38:41Z</time></trkpt>
<trkpt lat="50.626805" lon="5.509048"><time>2026-05-02T18:48:41Z</time></trkpt>
</trkseg>
</trk>
<trk>
<name>lsnmt33</name>
<cmt>v</cmt>
<desc>Montegnée Chemin n°33 </desc>
<link href="https://chemins.be/montegnee/chemin/33"/><trkseg>
<trkpt lat="50.627055" lon="5.517482"><time>2026-05-02T18:28:41Z</time></trkpt>
<trkpt lat="50.627382" lon="5.517233"><time>2026-05-02T18:38:41Z</time></trkpt>
<trkpt lat="50.627613" lon="5.517379"><time>2026-05-02T18:48:41Z</time></trkpt>
<trkpt lat="50.627820" lon="5.517094"><time>2026-05-02T18:58:41Z</time></trkpt>
<trkpt lat="50.628086" lon="5.516726"><time>2026-05-02T19:08:41Z</time></trkpt>
</trkseg>
</trk>
<trk>
<name>lsnmt36</name>
<cmt>q</cmt>
<desc>Montegnée Sentier n°36 </desc>
<link href="https://chemins.be/montegnee/sentier/36"/><trkseg>
<trkpt lat="50.635692" lon="5.507938"><time>2026-05-02T18:28:41Z</time></trkpt>
<trkpt lat="50.636299" lon="5.509071"><time>2026-05-02T18:38:41Z</time></trkpt>
<trkpt lat="50.636346" lon="5.509277"><time>2026-05-02T18:48:41Z</time></trkpt>
<trkpt lat="50.636729" lon="5.511015"><time>2026-05-02T18:58:41Z</time></trkpt>
</trkseg>
</trk>
<trk>
<name>lsnmt41</name>
<cmt>q</cmt>
<desc>Montegnée Sentier n°41 </desc>
<link href="https://chemins.be/montegnee/sentier/41"/><trkseg>
<trkpt lat="50.646578" lon="5.516081"><time>2026-05-02T18:28:41Z</time></trkpt>
<trkpt lat="50.645523" lon="5.514257"><time>2026-05-02T18:38:41Z</time></trkpt>
</trkseg>
</trk>
<trk>
<name>lsnmt42</name>
<cmt>q</cmt>
<desc>Montegnée Sentier n°42 </desc>
<link href="https://chemins.be/montegnee/sentier/42"/><trkseg>
<trkpt lat="50.648589" lon="5.516583"><time>2026-05-02T18:28:41Z</time></trkpt>
<trkpt lat="50.649405" lon="5.518035"><time>2026-05-02T18:38:41Z</time></trkpt>
<trkpt lat="50.649768" lon="5.519609"><time>2026-05-02T18:48:41Z</time></trkpt>
<trkpt lat="50.649673" lon="5.522985"><time>2026-05-02T18:58:41Z</time></trkpt>
</trkseg>
</trk>
<trk>
<name>lsnmt44</name>
<cmt>q</cmt>
<desc>Montegnée Sentier n°44 </desc>
<link href="https://chemins.be/montegnee/sentier/44"/><trkseg>
<trkpt lat="50.647744" lon="5.524859"><time>2026-05-02T18:28:41Z</time></trkpt>
<trkpt lat="50.647340" lon="5.524122"><time>2026-05-02T18:38:41Z</time></trkpt>
<trkpt lat="50.647508" lon="5.523800"><time>2026-05-02T18:48:41Z</time></trkpt>
<trkpt lat="50.645925" lon="5.521669"><time>2026-05-02T18:58:41Z</time></trkpt>
</trkseg>
</trk>
<trk>
<name>lsnmt45</name>
<cmt>r</cmt>
<desc>Montegnée Sentier n°45 Rue aux Cailloux</desc>
<link href="https://chemins.be/montegnee/sentier/45"/><trkseg>
<trkpt lat="50.640878" lon="5.529225"><time>2026-05-02T18:28:41Z</time></trkpt>
<trkpt lat="50.640451" lon="5.531257"><time>2026-05-02T18:38:41Z</time></trkpt>
<trkpt lat="50.640515" lon="5.532058"><time>2026-05-02T18:48:41Z</time></trkpt>
</trkseg>
</trk>
<trk>
<name>lsnmt46</name>
<cmt>s</cmt>
<desc>Montegnée Sentier n°46 Rue Ernest Malvoz</desc>
<link href="https://chemins.be/montegnee/sentier/46"/><trkseg>
<trkpt lat="50.637974" lon="5.531779"><time>2026-05-02T18:28:41Z</time></trkpt>
<trkpt lat="50.638941" lon="5.532194"><time>2026-05-02T18:38:41Z</time></trkpt>
<trkpt lat="50.640537" lon="5.532051"><time>2026-05-02T18:48:41Z</time></trkpt>
</trkseg></trk>
<trk>
<name>lsnmt46</name>
<cmt>r</cmt>
<desc>Montegnée Sentier n°46 Rue Ernest Malvoz</desc>
<link href="https://chemins.be/montegnee/sentier/46"/><trkseg>
<trkpt lat="50.640537" lon="5.532051"><time>2026-05-02T18:48:41Z</time></trkpt>
<trkpt lat="50.641635" lon="5.534103"><time>2026-05-02T18:58:41Z</time></trkpt>
</trkseg>
</trk>
<trk>
<name>lsnmt47</name>
<cmt>s</cmt>
<desc>Montegnée Sentier n°47 </desc>
<link href="https://chemins.be/montegnee/sentier/47"/><trkseg>
<trkpt lat="50.639694" lon="5.528593"><time>2026-05-02T18:28:41Z</time></trkpt>
<trkpt lat="50.640039" lon="5.529770"><time>2026-05-02T18:38:41Z</time></trkpt>
</trkseg>
</trk>
<trk>
<name>lsnmt48</name>
<cmt>q</cmt>
<desc>Montegnée Sentier n°48 </desc>
<link href="https://chemins.be/montegnee/sentier/48"/><trkseg>
<trkpt lat="50.638483" lon="5.532945"><time>2026-05-02T18:28:41Z</time></trkpt>
<trkpt lat="50.638941" lon="5.532244"><time>2026-05-02T18:38:41Z</time></trkpt>
<trkpt lat="50.639254" lon="5.531693"><time>2026-05-02T18:48:41Z</time></trkpt>
<trkpt lat="50.640392" lon="5.528997"><time>2026-05-02T18:58:41Z</time></trkpt>
</trkseg>
</trk>
<trk>
<name>lsnmt49</name>
<cmt>q</cmt>
<desc>Montegnée Sentier n°49 </desc>
<link href="https://chemins.be/montegnee/sentier/49"/><trkseg>
<trkpt lat="50.627273" lon="5.518694"><time>2026-05-02T18:28:41Z</time></trkpt>
<trkpt lat="50.626652" lon="5.519252"><time>2026-05-02T18:38:41Z</time></trkpt>
</trkseg>
</trk>
<trk>
<name>lsnmt50</name>
<cmt>r</cmt>
<desc>Montegnée Sentier n°50 Rue Dieudonné Jacobs</desc>
<link href="https://chemins.be/montegnee/sentier/50"/><trkseg>
<trkpt lat="50.628991" lon="5.519980"><time>2026-05-02T18:28:41Z</time></trkpt>
<trkpt lat="50.629249" lon="5.519407"><time>2026-05-02T18:38:41Z</time></trkpt>
<trkpt lat="50.629176" lon="5.518744"><time>2026-05-02T18:48:41Z</time></trkpt>
<trkpt lat="50.628767" lon="5.517735"><time>2026-05-02T18:58:41Z</time></trkpt>
<trkpt lat="50.628076" lon="5.516727"><time>2026-05-02T19:08:41Z</time></trkpt>
</trkseg>
</trk>
<trk>
<name>lsnmt51</name>
<cmt>r</cmt>
<desc>Montegnée Sentier n°51 Rue Lamay / RAVeL Ligne 212</desc>
<link href="https://chemins.be/montegnee/sentier/51"/><trkseg>
<trkpt lat="50.631727" lon="5.518962"><time>2026-05-02T18:28:41Z</time></trkpt>
<trkpt lat="50.630461" lon="5.515829"><time>2026-05-02T18:38:41Z</time></trkpt>
<trkpt lat="50.630475" lon="5.514706"><time>2026-05-02T18:48:41Z</time></trkpt>
<trkpt lat="50.629643" lon="5.513344"><time>2026-05-02T18:58:41Z</time></trkpt>
</trkseg></trk>
<trk>
<name>lsnmt51</name>
<cmt>q</cmt>
<desc>Montegnée Sentier n°51 Rue Lamay / RAVeL Ligne 212</desc>
<link href="https://chemins.be/montegnee/sentier/51"/><trkseg>
<trkpt lat="50.629643" lon="5.513344"><time>2026-05-02T18:58:41Z</time></trkpt>
<trkpt lat="50.630095" lon="5.512625"><time>2026-05-02T19:08:41Z</time></trkpt>
</trkseg></trk>
<trk>
<name>lsnmt51</name>
<cmt>v</cmt>
<desc>Montegnée Sentier n°51 Rue Lamay / RAVeL Ligne 212</desc>
<link href="https://chemins.be/montegnee/sentier/51"/><trkseg>
<trkpt lat="50.630095" lon="5.512625"><time>2026-05-02T19:08:41Z</time></trkpt>
<trkpt lat="50.629775" lon="5.512078"><time>2026-05-02T19:18:41Z</time></trkpt>
</trkseg></trk>
<trk>
<name>lsnmt51</name>
<cmt>q</cmt>
<desc>Montegnée Sentier n°51 Rue Lamay / RAVeL Ligne 212</desc>
<link href="https://chemins.be/montegnee/sentier/51"/><trkseg>
<trkpt lat="50.629775" lon="5.512078"><time>2026-05-02T19:18:41Z</time></trkpt>
<trkpt lat="50.629750" lon="5.511320"><time>2026-05-02T19:28:41Z</time></trkpt>
<trkpt lat="50.629353" lon="5.510398"><time>2026-05-02T19:38:41Z</time></trkpt>
<trkpt lat="50.629019" lon="5.509678"><time>2026-05-02T19:48:41Z</time></trkpt>
<trkpt lat="50.628960" lon="5.508809"><time>2026-05-02T19:58:41Z</time></trkpt>
</trkseg>
</trk>
<trk>
<name>lsnmt56</name>
<cmt>b</cmt>
<desc>Montegnée Sentier n°56 </desc>
<link href="https://chemins.be/montegnee/sentier/56"/><trkseg>
<trkpt lat="50.628505" lon="5.508555"><time>2026-05-02T18:28:41Z</time></trkpt>
<trkpt lat="50.628594" lon="5.508235"><time>2026-05-02T18:38:41Z</time></trkpt>
<trkpt lat="50.628702" lon="5.507827"><time>2026-05-02T18:48:41Z</time></trkpt>
</trkseg>
</trk>
<trk>
<name>lsnmt57</name>
<cmt>v</cmt>
<desc>Montegnée Sentier n°57 </desc>
<link href="https://chemins.be/montegnee/sentier/57"/><trkseg>
<trkpt lat="50.632934" lon="5.516136"><time>2026-05-02T18:28:41Z</time></trkpt>
<trkpt lat="50.632793" lon="5.515915"><time>2026-05-02T18:38:41Z</time></trkpt>
<trkpt lat="50.633628" lon="5.514458"><time>2026-05-02T18:48:41Z</time></trkpt>
</trkseg></trk>
<trk>
<name>lsnmt57</name>
<cmt>q</cmt>
<desc>Montegnée Sentier n°57 </desc>
<link href="https://chemins.be/montegnee/sentier/57"/><trkseg>
<trkpt lat="50.633628" lon="5.514458"><time>2026-05-02T18:48:41Z</time></trkpt>
<trkpt lat="50.634394" lon="5.513218"><time>2026-05-02T18:58:41Z</time></trkpt>
</trkseg>
</trk>
<trk>
<name>lsnmt58</name>
<cmt>r</cmt>
<desc>Montegnée Sentier n°58 </desc>
<link href="https://chemins.be/montegnee/sentier/58"/><trkseg>
<trkpt lat="50.629009" lon="5.512565"><time>2026-05-02T18:28:41Z</time></trkpt>
<trkpt lat="50.628893" lon="5.511723"><time>2026-05-02T18:38:41Z</time></trkpt>
</trkseg></trk>
<trk>
<name>lsnmt58</name>
<cmt>s</cmt>
<desc>Montegnée Sentier n°58 </desc>
<link href="https://chemins.be/montegnee/sentier/58"/><trkseg>
<trkpt lat="50.628893" lon="5.511723"><time>2026-05-02T18:38:41Z</time></trkpt>
<trkpt lat="50.628479" lon="5.511516"><time>2026-05-02T18:48:41Z</time></trkpt>
<trkpt lat="50.628252" lon="5.511457"><time>2026-05-02T18:58:41Z</time></trkpt>
<trkpt lat="50.628044" lon="5.510724"><time>2026-05-02T19:08:41Z</time></trkpt>
<trkpt lat="50.627563" lon="5.510600"><time>2026-05-02T19:18:41Z</time></trkpt>
<trkpt lat="50.627613" lon="5.509987"><time>2026-05-02T19:28:41Z</time></trkpt>
<trkpt lat="50.626842" lon="5.509150"><time>2026-05-02T19:38:41Z</time></trkpt>
</trkseg>
</trk>
<trk>
<name>lsnmt59</name>
<cmt>r</cmt>
<desc>Montegnée Sentier n°59 Rue Dieudonné Jacobs / Rue des Mineurs</desc>
<link href="https://chemins.be/montegnee/sentier/59"/><trkseg>
<trkpt lat="50.628087" lon="5.516817"><time>2026-05-02T18:28:41Z</time></trkpt>
<trkpt lat="50.627466" lon="5.515014"><time>2026-05-02T18:38:41Z</time></trkpt>
</trkseg></trk>
<trk>
<name>lsnmt59</name>
<cmt>q</cmt>
<desc>Montegnée Sentier n°59 Rue Dieudonné Jacobs / Rue des Mineurs</desc>
<link href="https://chemins.be/montegnee/sentier/59"/><trkseg>
<trkpt lat="50.627466" lon="5.515014"><time>2026-05-02T18:38:41Z</time></trkpt>
<trkpt lat="50.627862" lon="5.514676"><time>2026-05-02T18:48:41Z</time></trkpt>
<trkpt lat="50.628054" lon="5.514365"><time>2026-05-02T18:58:41Z</time></trkpt>
<trkpt lat="50.627985" lon="5.514166"><time>2026-05-02T19:08:41Z</time></trkpt>
<trkpt lat="50.628071" lon="5.513982"><time>2026-05-02T19:18:41Z</time></trkpt>
</trkseg></trk>
<trk>
<name>lsnmt59</name>
<cmt>r</cmt>
<desc>Montegnée Sentier n°59 Rue Dieudonné Jacobs / Rue des Mineurs</desc>
<link href="https://chemins.be/montegnee/sentier/59"/><trkseg>
<trkpt lat="50.628071" lon="5.513982"><time>2026-05-02T19:18:41Z</time></trkpt>
<trkpt lat="50.628646" lon="5.514169"><time>2026-05-02T19:28:41Z</time></trkpt>
<trkpt lat="50.629168" lon="5.514899"><time>2026-05-02T19:38:41Z</time></trkpt>
<trkpt lat="50.630098" lon="5.514055"><time>2026-05-02T19:48:41Z</time></trkpt>
</trkseg>
</trk>
<trk>
<name>lsnmti1</name>
<cmt>v</cmt>
<desc>Montegnée Sentier n°i1 </desc>
<link href="https://chemins.be/montegnee/sentier/i1"/><trkseg>
<trkpt lat="50.634061" lon="5.521735"><time>2026-05-02T18:28:41Z</time></trkpt>
<trkpt lat="50.633547" lon="5.522783"><time>2026-05-02T18:38:41Z</time></trkpt>
<trkpt lat="50.633206" lon="5.523566"><time>2026-05-02T18:48:41Z</time></trkpt>
</trkseg>
</trk>
<trk>
<name>lsnmti2</name>
<cmt>v</cmt>
<desc>Montegnée Sentier n°i2 RAVeL</desc>
<link href="https://chemins.be/montegnee/sentier/i2"/><trkseg>
<trkpt lat="50.629538" lon="5.518803"><time>2026-05-02T18:28:41Z</time></trkpt>
<trkpt lat="50.630001" lon="5.518820"><time>2026-05-02T18:38:41Z</time></trkpt>
<trkpt lat="50.630194" lon="5.518713"><time>2026-05-02T18:48:41Z</time></trkpt>
<trkpt lat="50.630461" lon="5.518648"><time>2026-05-02T18:58:41Z</time></trkpt>
</trkseg>
</trk>
<trk>
<name>lsnmti3</name>
<cmt>r</cmt>
<desc>Montegnée Chemin n°i3 Rue Haseur</desc>
<link href="https://chemins.be/montegnee/chemin/i3"/><trkseg>
<trkpt lat="50.632042" lon="5.509605"><time>2026-05-02T18:28:41Z</time></trkpt>
<trkpt lat="50.631460" lon="5.509485"><time>2026-05-02T18:38:41Z</time></trkpt>
<trkpt lat="50.629157" lon="5.510558"><time>2026-05-02T18:48:41Z</time></trkpt>
</trkseg>
</trk>
<trk>
<name>lsnmti4</name>
<cmt>q</cmt>
<desc>Montegnée Chemin n°i4 </desc>
<link href="https://chemins.be/montegnee/chemin/i4"/><trkseg>
<trkpt lat="50.629151" lon="5.511062"><time>2026-05-02T18:28:41Z</time></trkpt>
<trkpt lat="50.629508" lon="5.511440"><time>2026-05-02T18:38:41Z</time></trkpt>
<trkpt lat="50.630071" lon="5.511221"><time>2026-05-02T18:48:41Z</time></trkpt>
<trkpt lat="50.630638" lon="5.512866"><time>2026-05-02T18:58:41Z</time></trkpt>
<trkpt lat="50.630872" lon="5.513124"><time>2026-05-02T19:08:41Z</time></trkpt>
<trkpt lat="50.631378" lon="5.513793"><time>2026-05-02T19:18:41Z</time></trkpt>
<trkpt lat="50.631835" lon="5.513819"><time>2026-05-02T19:28:41Z</time></trkpt>
<trkpt lat="50.632744" lon="5.513871"><time>2026-05-02T19:38:41Z</time></trkpt>
<trkpt lat="50.633066" lon="5.514257"><time>2026-05-02T19:48:41Z</time></trkpt>
<trkpt lat="50.632603" lon="5.515527"><time>2026-05-02T19:58:41Z</time></trkpt>
<trkpt lat="50.632195" lon="5.516059"><time>2026-05-02T20:08:41Z</time></trkpt>
</trkseg>
</trk>
<trk>
<name>lsnmti5</name>
<cmt>v</cmt>
<desc>Montegnée Sentier n°i5 </desc>
<link href="https://chemins.be/montegnee/sentier/i5"/><trkseg>
<trkpt lat="50.628307" lon="5.517109"><time>2026-05-02T18:28:41Z</time></trkpt>
<trkpt lat="50.628049" lon="5.517486"><time>2026-05-02T18:38:41Z</time></trkpt>
<trkpt lat="50.627845" lon="5.517508"><time>2026-05-02T18:48:41Z</time></trkpt>
<trkpt lat="50.627700" lon="5.517332"><time>2026-05-02T18:58:41Z</time></trkpt>
</trkseg>
</trk>
<trk>
<name>lsnmti6</name>
<cmt>q</cmt>
<desc>Montegnée Sentier n°i6 </desc>
<link href="https://chemins.be/montegnee/sentier/i6"/><trkseg>
<trkpt lat="50.628993" lon="5.509378"><time>2026-05-02T18:28:41Z</time></trkpt>
<trkpt lat="50.628471" lon="5.508669"><time>2026-05-02T18:38:41Z</time></trkpt>
</trkseg>
</trk>
<trk>
<name>lsnmti7</name>
<cmt>v</cmt>
<desc>Montegnée Sentier n°i7 </desc>
<link href="https://chemins.be/montegnee/sentier/i7"/><trkseg>
<trkpt lat="50.638968" lon="5.519134"><time>2026-05-02T18:28:41Z</time></trkpt>
<trkpt lat="50.638770" lon="5.519014"><time>2026-05-02T18:38:41Z</time></trkpt>
</trkseg>
</trk>
<trk>
<name>lsnmti8</name>
<cmt>v</cmt>
<desc>Montegnée Chemin n°i8 RAVeL Ligne 212</desc>
<link href="https://chemins.be/montegnee/chemin/i8"/><trkseg>
<trkpt lat="50.627390" lon="5.508656"><time>2026-05-02T18:28:41Z</time></trkpt>
<trkpt lat="50.627887" lon="5.509354"><time>2026-05-02T18:38:41Z</time></trkpt>
<trkpt lat="50.628754" lon="5.509783"><time>2026-05-02T18:48:41Z</time></trkpt>
<trkpt lat="50.629130" lon="5.510317"><time>2026-05-02T18:58:41Z</time></trkpt>
<trkpt lat="50.629151" lon="5.510682"><time>2026-05-02T19:08:41Z</time></trkpt>
<trkpt lat="50.629154" lon="5.511085"><time>2026-05-02T19:18:41Z</time></trkpt>
</trkseg>
</trk>
<trk>
<name>lsnmtL212</name>
<cmt>s</cmt>
<desc>Montegnée Chemin n°L212 RAVeL / RAVeL Ligne 212</desc>
<link href="https://chemins.be/montegnee/chemin/L212"/><trkseg>
<trkpt lat="50.627465" lon="5.511521"><time>2026-05-02T18:28:41Z</time></trkpt>
<trkpt lat="50.628824" lon="5.510736"><time>2026-05-02T18:38:41Z</time></trkpt>
<trkpt lat="50.629140" lon="5.511053"><time>2026-05-02T18:48:41Z</time></trkpt>
</trkseg></trk>
<trk>
<name>lsnmtL212</name>
<cmt>v</cmt>
<desc>Montegnée Chemin n°L212 RAVeL / RAVeL Ligne 212</desc>
<link href="https://chemins.be/montegnee/chemin/L212"/><trkseg>
<trkpt lat="50.629140" lon="5.511053"><time>2026-05-02T18:48:41Z</time></trkpt>
<trkpt lat="50.629448" lon="5.511757"><time>2026-05-02T18:58:41Z</time></trkpt>
<trkpt lat="50.629745" lon="5.511970"><time>2026-05-02T19:08:41Z</time></trkpt>
<trkpt lat="50.631778" lon="5.515721"><time>2026-05-02T19:18:41Z</time></trkpt>
<trkpt lat="50.632200" lon="5.516086"><time>2026-05-02T19:28:41Z</time></trkpt>
<trkpt lat="50.632486" lon="5.516290"><time>2026-05-02T19:38:41Z</time></trkpt>
<trkpt lat="50.633077" lon="5.517617"><time>2026-05-02T19:48:41Z</time></trkpt>
<trkpt lat="50.633814" lon="5.518329"><time>2026-05-02T19:58:41Z</time></trkpt>
<trkpt lat="50.634078" lon="5.518819"><time>2026-05-02T20:08:41Z</time></trkpt>
<trkpt lat="50.634329" lon="5.519538"><time>2026-05-02T20:18:41Z</time></trkpt>
<trkpt lat="50.634536" lon="5.520707"><time>2026-05-02T20:28:41Z</time></trkpt>
<trkpt lat="50.634746" lon="5.521497"><time>2026-05-02T20:38:41Z</time></trkpt>
<trkpt lat="50.634912" lon="5.522010"><time>2026-05-02T20:48:41Z</time></trkpt>
<trkpt lat="50.635159" lon="5.522525"><time>2026-05-02T20:58:41Z</time></trkpt>
<trkpt lat="50.635371" lon="5.522841"><time>2026-05-02T21:08:41Z</time></trkpt>
<trkpt lat="50.637148" lon="5.525020"><time>2026-05-02T21:18:41Z</time></trkpt>
<trkpt lat="50.637575" lon="5.525497"><time>2026-05-02T21:28:41Z</time></trkpt>
<trkpt lat="50.638408" lon="5.526262"><time>2026-05-02T21:38:41Z</time></trkpt>
<trkpt lat="50.639452" lon="5.527325"><time>2026-05-02T21:48:41Z</time></trkpt>
<trkpt lat="50.642241" lon="5.529706"><time>2026-05-02T21:58:41Z</time></trkpt>
<trkpt lat="50.643874" lon="5.530179"><time>2026-05-02T22:08:41Z</time></trkpt>
<trkpt lat="50.644609" lon="5.530071"><time>2026-05-02T22:18:41Z</time></trkpt>
<trkpt lat="50.645216" lon="5.529827"><time>2026-05-02T22:28:41Z</time></trkpt>
</trkseg></trk>
<trk>
<name>lsnmtL212</name>
<cmt>s</cmt>
<desc>Montegnée Chemin n°L212 RAVeL / RAVeL Ligne 212</desc>
<link href="https://chemins.be/montegnee/chemin/L212"/><trkseg>
<trkpt lat="50.645216" lon="5.529827"><time>2026-05-02T22:28:41Z</time></trkpt>
<trkpt lat="50.645963" lon="5.529293"><time>2026-05-02T22:38:41Z</time></trkpt>
<trkpt lat="50.647144" lon="5.527775"><time>2026-05-02T22:48:41Z</time></trkpt>
</trkseg>
</trk>
</gpx>